,,Stat5,,Stat1,,Stat2,,Stat3,,Stat4,,Wind1,,Wind1,
time,status,PA1M_AVG,status,PR1M_SUM,status,RH1M_AVG,status,SR1M_AVG,status,TA1M_AVG,status,W1dAve1m,status,W1sAve1m,
2002-01-30, 00:00:00,VALID,919.307,VALID,0,VALID,86.8239,VALID,0,VALID,20.5542,VALID,135,VALID,2.01645,
2002-01-30, 00:01:00,VALID,919.315,VALID,0,VALID,86.965,VALID,0,VALID,20.5345,VALID,135,VALID,1.57332,
2002-01-30, 00:02:00,VALID,919.306,VALID,0,VALID,87.0642,VALID,0,VALID,20.4985,VALID,140,VALID,1.88842,
2002-01-30, 00:03:00,VALID,919.292,VALID,0,VALID,87.0579,VALID,0,VALID,20.5084,VALID,137,VALID,2.69331,
2002-01-30, 00:04:00,VALID,919.284,VALID,0,VALID,87.0286,VALID,0,VALID,20.5186,VALID,142,VALID,2.44243,
2002-01-30, 00:05:00,VALID,919.279,VALID,0,VALID,86.7514,VALID,0.0169808,VALID,20.5251,VALID,156,VALID,3.20653,
2002-01-30, 00:06:00,VALID,919.274,VALID,0,VALID,86.4984,VALID,0.0169808,VALID,20.5305,VALID,140,VALID,2.28839,
2002-01-30, 00:07:00,VALID,919.286,VALID,0,VALID,86.5098,VALID,0,VALID,20.5569,VALID,139,VALID,2.42344,
2002-01-30, 00:08:00,VALID,919.276,VALID,0,VALID,86.3648,VALID,0,VALID,20.5803,VALID,135,VALID,2.24653,
2002-01-30, 00:09:00,VALID,919.281,VALID,0,VALID,86.5683,VALID,0,VALID,20.583,VALID,147,VALID,2.04036,
2002-01-30, 00:10:00,VALID,919.272,VALID,0,VALID,86.6103,VALID,0,VALID,20.5599,VALID,145,VALID,2.19257,
2002-01-30, 00:11:00,VALID,919.27,VALID,0,VALID,86.478,VALID,0.0169808,VALID,20.534,VALID,143,VALID,1.91776,
2002-01-30, 00:12:00,VALID,919.261,VALID,0,VALID,86.5327,VALID,0,VALID,20.5407,VALID,146,VALID,2.29603,
2002-01-30, 00:13:00,VALID,919.261,VALID,0,VALID,86.6751,VALID,0.0169808,VALID,20.534,VALID,145,VALID,2.0378,
2002-01-30, 00:14:00,VALID,919.256,VALID,0,VALID,86.5276,VALID,-0.0169808,VALID,20.5311,VALID,149,VALID,1.94263,
2002-01-30, 00:15:00,VALID,919.238,VALID,0,VALID,86.6446,VALID,0,VALID,20.5413,VALID,139,VALID,2.0551,
2002-01-30, 00:16:00,VALID,919.23,VALID,0,VALID,86.6713,VALID,0,VALID,20.5343,VALID,150,VALID,1.81524,
2002-01-30, 00:17:00,VALID,919.223,VALID,0,VALID,86.5492,VALID,0,VALID,20.5318,VALID,148,VALID,2.10309,
2002-01-30, 00:18:00,VALID,919.241,VALID,0,VALID,86.2809,VALID,0.0169808,VALID,20.5343,VALID,148,VALID,2.3959,
2002-01-30, 00:19:00,VALID,919.229,VALID,0,VALID,86.3445,VALID,0,VALID,20.5599,VALID,119,VALID,1.53022,
2002-01-30, 00:20:00,VALID,919.233,VALID,0,VALID,86.5098,VALID,0,VALID,20.5731,VALID,143,VALID,1.83285,
2002-01-30, 00:21:00,VALID,919.225,VALID,0,VALID,86.5925,VALID,0.0339617,VALID,20.5728,VALID,150,VALID,2.58027,
2002-01-30, 00:22:00,VALID,919.22,VALID,0,VALID,86.7514,VALID,0,VALID,20.5607,VALID,146,VALID,2.11358,
2002-01-30, 00:23:00,VALID,919.213,VALID,0,VALID,86.9269,VALID,0.0339617,VALID,20.5405,VALID,139,VALID,2.19576,
2002-01-30, 00:24:00,VALID,919.211,VALID,0,VALID,86.9778,VALID,0.0339617,VALID,20.5311,VALID,145,VALID,2.31973,
2002-01-30, 00:25:00,VALID,919.207,VALID,0,VALID,87.0973,VALID,0.0169808,VALID,20.4982,VALID,144,VALID,2.25564,
2002-01-30, 00:26:00,VALID,919.228,VALID,0,VALID,86.9015,VALID,0.0509425,VALID,20.4885,VALID,129,VALID,1.82292,
2002-01-30, 00:27:00,VALID,919.222,VALID,0,VALID,86.9803,VALID,0,VALID,20.4987,VALID,131,VALID,1.59455,
2002-01-30, 00:28:00,VALID,919.226,VALID,0,VALID,86.9409,VALID,0.0339617,VALID,20.5049,VALID,146,VALID,2.09457,
2002-01-30, 00:29:00,VALID,919.206,VALID,0,VALID,86.5098,VALID,0.0339617,VALID,20.5114,VALID,153,VALID,2.7389,
2002-01-30, 00:30:00,VALID,919.201,VALID,0,VALID,86.403,VALID,0.0169808,VALID,20.5472,VALID,155,VALID,2.43032,
2002-01-30, 00:31:00,VALID,919.189,VALID,0,VALID,86.4538,VALID,0.0339617,VALID,20.5758,VALID,140,VALID,1.91385,
2002-01-30, 00:32:00,VALID,919.176,VALID,0,VALID,86.2402,VALID,-0.0169808,VALID,20.5892,VALID,148,VALID,2.04497,
2002-01-30, 00:33:00,VALID,919.175,VALID,0,VALID,86.4233,VALID,0,VALID,20.5825,VALID,143,VALID,1.47471,
2002-01-30, 00:34:00,VALID,919.167,VALID,0,VALID,86.52,VALID,0.0169808,VALID,20.5793,VALID,149,VALID,1.26242,
2002-01-30, 00:35:00,VALID,919.164,VALID,0,VALID,86.595,VALID,0.0169808,VALID,20.5696,VALID,146,VALID,2.13682,
2002-01-30, 00:36:00,VALID,919.175,VALID,0,VALID,86.9256,VALID,0,VALID,20.5497,VALID,129,VALID,2.5209,
2002-01-30, 00:37:00,VALID,919.181,VALID,0,VALID,87.1024,VALID,0.0169808,VALID,20.5544,VALID,141,VALID,1.90337,
2002-01-30, 00:38:00,VALID,919.161,VALID,0,VALID,87.2346,VALID,0,VALID,20.5216,VALID,152,VALID,2.21795,
2002-01-30, 00:39:00,VALID,919.173,VALID,0,VALID,87.1825,VALID,0,VALID,20.5152,VALID,149,VALID,2.16567,
2002-01-30, 00:40:00,VALID,919.189,VALID,0,VALID,86.9841,VALID,0,VALID,20.495,VALID,148,VALID,2.07146,
2002-01-30, 00:41:00,VALID,919.189,VALID,0,VALID,86.843,VALID,0,VALID,20.5082,VALID,147,VALID,1.76871,
2002-01-30, 00:42:00,VALID,919.192,VALID,0,VALID,86.9498,VALID,0,VALID,20.5211,VALID,143,VALID,2.06715,
2002-01-30, 00:43:00,VALID,919.18,VALID,0,VALID,86.5314,VALID,0,VALID,20.5214,VALID,146,VALID,2.30035,
2002-01-30, 00:44:00,VALID,919.167,VALID,0,VALID,86.4132,VALID,0,VALID,20.547,VALID,151,VALID,2.71137,
2002-01-30, 00:45:00,VALID,919.148,VALID,0,VALID,86.2974,VALID,0.0169808,VALID,20.5793,VALID,122,VALID,1.65522,
2002-01-30, 00:46:00,VALID,919.117,VALID,0,VALID,86.3801,VALID,-0.0169808,VALID,20.5855,VALID,147,VALID,1.46938,
2002-01-30, 00:47:00,VALID,919.124,VALID,0,VALID,86.2351,VALID,0,VALID,20.5623,VALID,157,VALID,2.03058,
2002-01-30, 00:48:00,VALID,919.097,VALID,0,VALID,86.2313,VALID,0.0169808,VALID,20.5725,VALID,130,VALID,2.08951,
2002-01-30, 00:49:00,VALID,919.076,VALID,0,VALID,86.0647,VALID,-0.0169808,VALID,20.586,VALID,132,VALID,1.76069,
2002-01-30, 00:50:00,VALID,919.072,VALID,0,VALID,86.0991,VALID,0,VALID,20.5793,VALID,137,VALID,1.10577,
2002-01-30, 00:51:00,VALID,919.063,VALID,0,VALID,86.2173,VALID,0,VALID,20.5691,VALID,118,VALID,1.15918,
2002-01-30, 00:52:00,VALID,919.056,VALID,0,VALID,86.2669,VALID,0.0169808,VALID,20.5596,VALID,117,VALID,1.31743,
2002-01-30, 00:53:00,VALID,919.052,VALID,0,VALID,86.2275,VALID,0,VALID,20.5437,VALID,127,VALID,1.32306,
2002-01-30, 00:54:00,VALID,919.057,VALID,0,VALID,85.8537,VALID,0,VALID,20.5402,VALID,135,VALID,2.2526,
2002-01-30, 00:55:00,VALID,919.059,VALID,0,VALID,85.682,VALID,0,VALID,20.5758,VALID,116,VALID,1.38201,
2002-01-30, 00:56:00,VALID,919.037,VALID,0,VALID,85.3895,VALID,0,VALID,20.6086,VALID,141,VALID,2.24679,
2002-01-30, 00:57:00,VALID,919.002,VALID,0,VALID,85.2649,VALID,0,VALID,20.6573,VALID,149,VALID,2.52991,
2002-01-30, 00:58:00,VALID,918.985,VALID,0,VALID,84.713,VALID,-0.0169808,VALID,20.6862,VALID,109,VALID,2.09199,
2002-01-30, 00:59:00,VALID,918.979,VALID,0,VALID,85.3476,VALID,0.0169808,VALID,20.7182,VALID,148,VALID,2.38194,
2002-01-30, 01:00:00,VALID,918.971,VALID,0,VALID,85.9211,VALID,-0.0169808,VALID,20.7118,VALID,144,VALID,2.95768,
2002-01-30, 01:01:00,VALID,918.951,VALID,0,VALID,86.108,VALID,0,VALID,20.6824,VALID,142,VALID,1.6799,
2002-01-30, 01:02:00,VALID,918.945,VALID,0,VALID,85.9859,VALID,0,VALID,20.6633,VALID,156,VALID,2.04235,
2002-01-30, 01:03:00,VALID,918.929,VALID,0,VALID,86.1703,VALID,0,VALID,20.6606,VALID,150,VALID,1.39865,
2002-01-30, 01:04:00,VALID,918.927,VALID,0,VALID,86.2771,VALID,0,VALID,20.6339,VALID,143,VALID,2.30722,
2002-01-30, 01:05:00,VALID,918.924,VALID,0,VALID,86.4818,VALID,0.0169808,VALID,20.631,VALID,142,VALID,1.23795,
2002-01-30, 01:06:00,VALID,918.916,VALID,0,VALID,86.6408,VALID,0,VALID,20.6019,VALID,145,VALID,1.8014,
2002-01-30, 01:07:00,VALID,918.88,VALID,0,VALID,86.7667,VALID,0.0169808,VALID,20.5701,VALID,138,VALID,1.63366,
2002-01-30, 01:08:00,VALID,918.863,VALID,0,VALID,86.6293,VALID,0,VALID,20.5413,VALID,141,VALID,1.71894,
2002-01-30, 01:09:00,VALID,918.86,VALID,0,VALID,86.5162,VALID,0,VALID,20.5243,VALID,149,VALID,1.59121,
2002-01-30, 01:10:00,VALID,918.839,VALID,0,VALID,86.1232,VALID,0,VALID,20.5243,VALID,147,VALID,2.75164,
2002-01-30, 01:11:00,VALID,918.823,VALID,0,VALID,85.7189,VALID,0,VALID,20.5407,VALID,130,VALID,1.85095,
2002-01-30, 01:12:00,VALID,918.799,VALID,0,VALID,85.7977,VALID,-0.0339617,VALID,20.5857,VALID,157,VALID,2.29434,
2002-01-30, 01:13:00,VALID,918.772,VALID,0,VALID,85.8676,VALID,0.0169808,VALID,20.6151,VALID,144,VALID,1.82632,
2002-01-30, 01:14:00,VALID,918.761,VALID,0,VALID,86.1538,VALID,0,VALID,20.6019,VALID,119,VALID,1.65714,
2002-01-30, 01:15:00,VALID,918.768,VALID,0,VALID,86.1131,VALID,0,VALID,20.576,VALID,140,VALID,1.73223,
2002-01-30, 01:16:00,VALID,918.753,VALID,0,VALID,85.6019,VALID,0.0169808,VALID,20.5663,VALID,143,VALID,2.60981,
2002-01-30, 01:17:00,VALID,918.734,VALID,0,VALID,85.7583,VALID,0,VALID,20.6145,VALID,152,VALID,1.86719,
2002-01-30, 01:18:00,VALID,918.734,VALID,0,VALID,86.1932,VALID,0.0169808,VALID,20.6248,VALID,148,VALID,1.97977,
2002-01-30, 01:19:00,VALID,918.704,VALID,0,VALID,86.5492,VALID,0,VALID,20.5725,VALID,154,VALID,2.23396,
2002-01-30, 01:20:00,VALID,918.716,VALID,0,VALID,86.7985,VALID,0,VALID,20.5208,VALID,131,VALID,1.94799,
2002-01-30, 01:21:00,VALID,918.707,VALID,0,VALID,86.7514,VALID,0.0339617,VALID,20.5084,VALID,137,VALID,1.81715,
2002-01-30, 01:22:00,VALID,918.674,VALID,0,VALID,86.9447,VALID,0.0169808,VALID,20.5114,VALID,146,VALID,1.84852,
2002-01-30, 01:23:00,VALID,918.663,VALID,0,VALID,87.1036,VALID,0,VALID,20.4721,VALID,143,VALID,2.35853,
2002-01-30, 01:24:00,VALID,918.655,VALID,0,VALID,87.1202,VALID,0,VALID,20.4659,VALID,150,VALID,1.65995,
2002-01-30, 01:25:00,VALID,918.633,VALID,0,VALID,87.2918,VALID,0,VALID,20.4498,VALID,145,VALID,1.52524,
2002-01-30, 01:26:00,VALID,918.628,VALID,0,VALID,87.4012,VALID,0,VALID,20.4239,VALID,130,VALID,1.58313,
2002-01-30, 01:27:00,VALID,918.614,VALID,0,VALID,87.3732,VALID,0.0169808,VALID,20.4177,VALID,144,VALID,2.16786,
2002-01-30, 01:28:00,VALID,918.593,VALID,0,VALID,87.2982,VALID,0,VALID,20.4242,VALID,146,VALID,2.76316,
2002-01-30, 01:29:00,VALID,918.585,VALID,0,VALID,87.1749,VALID,0,VALID,20.4403,VALID,150,VALID,2.48057,
2002-01-30, 01:30:00,VALID,918.591,VALID,0,VALID,87.2613,VALID,-0.0169808,VALID,20.4629,VALID,135,VALID,2.22536,
2002-01-30, 01:31:00,VALID,918.591,VALID,0,VALID,87.4559,VALID,0.0169808,VALID,20.4602,VALID,143,VALID,1.94715,
2002-01-30, 01:32:00,VALID,918.568,VALID,0,VALID,87.5093,VALID,0.0169808,VALID,20.4277,VALID,140,VALID,2.56353,
2002-01-30, 01:33:00,VALID,918.558,VALID,0,VALID,87.5907,VALID,0,VALID,20.4279,VALID,142,VALID,1.76921,
2002-01-30, 01:34:00,VALID,918.548,VALID,0,VALID,87.6492,VALID,0,VALID,20.408,VALID,135,VALID,1.25109,
2002-01-30, 01:35:00,VALID,918.523,VALID,0,VALID,87.8463,VALID,0.0169808,VALID,20.3948,VALID,138,VALID,1.26411,
2002-01-30, 01:36:00,VALID,918.522,VALID,0,VALID,87.9378,VALID,0.0169808,VALID,20.3461,VALID,144,VALID,1.98951,
2002-01-30, 01:37:00,VALID,918.529,VALID,0,VALID,88.1006,VALID,0,VALID,20.3175,VALID,132,VALID,2.29856,
2002-01-30, 01:38:00,VALID,918.514,VALID,0,VALID,88.1464,VALID,-0.0509425,VALID,20.3255,VALID,141,VALID,1.41629,
2002-01-30, 01:39:00,VALID,918.505,VALID,0,VALID,88.0459,VALID,-0.0849042,VALID,20.3226,VALID,145,VALID,2.13884,
2002-01-30, 01:40:00,VALID,918.509,VALID,0,VALID,87.9709,VALID,-0.101885,VALID,20.3519,VALID,141,VALID,1.90481,
2002-01-30, 01:41:00,VALID,918.512,VALID,0,VALID,87.9798,VALID,-0.101885,VALID,20.3584,VALID,133,VALID,1.78946,
2002-01-30, 01:42:00,VALID,918.485,VALID,0,VALID,87.9493,VALID,-0.101885,VALID,20.3546,VALID,139,VALID,1.77656,
2002-01-30, 01:43:00,VALID,918.465,VALID,0,VALID,88.0027,VALID,-0.101885,VALID,20.3653,VALID,140,VALID,2.37726,
2002-01-30, 01:44:00,VALID,918.46,VALID,0,VALID,87.9327,VALID,-0.118866,VALID,20.3556,VALID,142,VALID,2.35051,
2002-01-30, 01:45:00,VALID,918.449,VALID,0,VALID,87.9721,VALID,-0.101885,VALID,20.3489,VALID,153,VALID,2.45052,
2002-01-30, 01:46:00,VALID,918.451,VALID,0,VALID,87.9124,VALID,-0.101885,VALID,20.339,VALID,153,VALID,2.9369,
2002-01-30, 01:47:00,VALID,918.455,VALID,0,VALID,87.5347,VALID,-0.118866,VALID,20.3845,VALID,160,VALID,3.04467,
2002-01-30, 01:48:00,VALID,918.436,VALID,0,VALID,87.5741,VALID,-0.118866,VALID,20.4133,VALID,156,VALID,2.1096,
2002-01-30, 01:49:00,VALID,918.421,VALID,0,VALID,87.5716,VALID,-0.118866,VALID,20.4329,VALID,145,VALID,2.7502,
2002-01-30, 01:50:00,VALID,918.392,VALID,0,VALID,87.6479,VALID,-0.135847,VALID,20.4329,VALID,146,VALID,2.16797,
2002-01-30, 01:51:00,VALID,918.388,VALID,0,VALID,87.6123,VALID,-0.101885,VALID,20.4267,VALID,153,VALID,1.88954,
2002-01-30, 01:52:00,VALID,918.37,VALID,0,VALID,87.5919,VALID,-0.101885,VALID,20.4238,VALID,144,VALID,2.68095,
2002-01-30, 01:53:00,VALID,918.381,VALID,0,VALID,87.6848,VALID,-0.0679233,VALID,20.4163,VALID,148,VALID,2.03187,
2002-01-30, 01:54:00,VALID,918.391,VALID,0,VALID,87.5957,VALID,0,VALID,20.3988,VALID,139,VALID,1.42314,
2002-01-30, 01:55:00,VALID,918.371,VALID,0,VALID,87.6708,VALID,-0.0169808,VALID,20.3993,VALID,150,VALID,1.62542,
2002-01-30, 01:56:00,VALID,918.36,VALID,0,VALID,87.7509,VALID,0,VALID,20.3697,VALID,145,VALID,1.93058,
2002-01-30, 01:57:00,VALID,918.335,VALID,0,VALID,87.6784,VALID,0,VALID,20.3633,VALID,134,VALID,1.60033,
2002-01-30, 01:58:00,VALID,918.312,VALID,0,VALID,87.6695,VALID,0,VALID,20.3566,VALID,142,VALID,1.76267,
2002-01-30, 01:59:00,VALID,918.334,VALID,0,VALID,87.4991,VALID,0,VALID,20.3377,VALID,146,VALID,2.09546,
2002-01-30, 02:00:00,VALID,918.3,VALID,0,VALID,87.4571,VALID,0,VALID,20.3469,VALID,150,VALID,1.6041,
2002-01-30, 02:01:00,VALID,918.297,VALID,0,VALID,87.3567,VALID,0.0169808,VALID,20.3765,VALID,141,VALID,1.92126,
2002-01-30, 02:02:00,VALID,918.3,VALID,0,VALID,87.0299,VALID,0,VALID,20.3891,VALID,140,VALID,1.89844,
2002-01-30, 02:03:00,VALID,918.277,VALID,0,VALID,87.0108,VALID,0,VALID,20.4317,VALID,145,VALID,1.30039,
2002-01-30, 02:04:00,VALID,918.279,VALID,0,VALID,87.2105,VALID,0.0169808,VALID,20.4209,VALID,153,VALID,1.90565,
2002-01-30, 02:05:00,VALID,918.257,VALID,0,VALID,87.3809,VALID,0,VALID,20.4048,VALID,144,VALID,1.63594,
2002-01-30, 02:06:00,VALID,918.257,VALID,0,VALID,87.4101,VALID,0,VALID,20.3953,VALID,154,VALID,1.14082,
2002-01-30, 02:07:00,VALID,918.258,VALID,0,VALID,87.4546,VALID,-0.0169808,VALID,20.3859,VALID,147,VALID,1.35503,
2002-01-30, 02:08:00,VALID,918.251,VALID,0,VALID,87.5118,VALID,0,VALID,20.3765,VALID,138,VALID,1.17839,
2002-01-30, 02:09:00,VALID,918.262,VALID,0,VALID,87.5602,VALID,0,VALID,20.3598,VALID,146,VALID,2.01122,
2002-01-30, 02:10:00,VALID,918.27,VALID,0,VALID,87.5296,VALID,0,VALID,20.3705,VALID,141,VALID,1.89289,
2002-01-30, 02:11:00,VALID,918.27,VALID,0,VALID,87.5716,VALID,-0.0169808,VALID,20.3635,VALID,145,VALID,2.01295,
2002-01-30, 02:12:00,VALID,918.245,VALID,0,VALID,87.5131,VALID,0.0169808,VALID,20.3931,VALID,141,VALID,1.65984,
2002-01-30, 02:13:00,VALID,918.23,VALID,0,VALID,87.6148,VALID,-0.0169808,VALID,20.3827,VALID,156,VALID,1.22483,
2002-01-30, 02:14:00,VALID,918.218,VALID,0,VALID,87.8183,VALID,0,VALID,20.3762,VALID,132,VALID,0.984375,
2002-01-30, 02:15:00,VALID,918.217,VALID,0,VALID,87.9632,VALID,-0.0169808,VALID,20.3372,VALID,130,VALID,1.61164,
2002-01-30, 02:16:00,VALID,918.195,VALID,0,VALID,88.1209,VALID,0,VALID,20.3315,VALID,155,VALID,1.98818,
2002-01-30, 02:17:00,VALID,918.208,VALID,0,VALID,88.1654,VALID,0,VALID,20.2954,VALID,151,VALID,2.15124,
2002-01-30, 02:18:00,VALID,918.204,VALID,0,VALID,88.0192,VALID,0,VALID,20.3121,VALID,144,VALID,2.01774,
2002-01-30, 02:19:00,VALID,918.201,VALID,0,VALID,87.9327,VALID,0,VALID,20.3118,VALID,150,VALID,2.24609,
2002-01-30, 02:20:00,VALID,918.207,VALID,0,VALID,87.7801,VALID,0,VALID,20.3248,VALID,142,VALID,1.5018,
2002-01-30, 02:21:00,VALID,918.192,VALID,0,VALID,87.7738,VALID,0,VALID,20.3277,VALID,151,VALID,2.00601,
2002-01-30, 02:22:00,VALID,918.196,VALID,0,VALID,87.9276,VALID,0,VALID,20.3479,VALID,168,VALID,1.24081,
2002-01-30, 02:23:00,VALID,918.187,VALID,0,VALID,87.9734,VALID,0.0169808,VALID,20.325,VALID,142,VALID,1.66735,
2002-01-30, 02:24:00,VALID,918.177,VALID,0,VALID,87.8437,VALID,-0.0169808,VALID,20.3049,VALID,131,VALID,2.09459,
2002-01-30, 02:25:00,VALID,918.18,VALID,0,VALID,87.7483,VALID,0,VALID,20.3146,VALID,138,VALID,2.35113,
2002-01-30, 02:26:00,VALID,918.156,VALID,0,VALID,87.7433,VALID,-0.0169808,VALID,20.328,VALID,158,VALID,1.53581,
2002-01-30, 02:27:00,VALID,918.143,VALID,0,VALID,87.5716,VALID,-0.0169808,VALID,20.3243,VALID,143,VALID,2.6616,
2002-01-30, 02:28:00,VALID,918.135,VALID,0,VALID,87.3376,VALID,-0.0169808,VALID,20.3601,VALID,147,VALID,1.82242,
2002-01-30, 02:29:00,VALID,918.108,VALID,0,VALID,87.4877,VALID,0,VALID,20.3765,VALID,144,VALID,1.88504,
2002-01-30, 02:30:00,VALID,918.088,VALID,0,VALID,87.5983,VALID,0,VALID,20.3635,VALID,141,VALID,1.70201,
2002-01-30, 02:31:00,VALID,918.068,VALID,0,VALID,87.6809,VALID,-0.0169808,VALID,20.3312,VALID,113,VALID,1.397,
2002-01-30, 02:32:00,VALID,918.056,VALID,0,VALID,87.55,VALID,0.0169808,VALID,20.3213,VALID,132,VALID,1.86398,
2002-01-30, 02:33:00,VALID,918.037,VALID,0,VALID,87.5385,VALID,0,VALID,20.3312,VALID,141,VALID,1.41562,
2002-01-30, 02:34:00,VALID,918.027,VALID,0,VALID,87.7038,VALID,0,VALID,20.3143,VALID,153,VALID,1.26953,
2002-01-30, 02:35:00,VALID,918.031,VALID,0,VALID,87.8768,VALID,0,VALID,20.2925,VALID,153,VALID,2.31651,
2002-01-30, 02:36:00,VALID,918.005,VALID,0,VALID,87.8463,VALID,0,VALID,20.2795,VALID,135,VALID,2.58914,
2002-01-30, 02:37:00,VALID,917.982,VALID,0,VALID,88.0662,VALID,0,VALID,20.2823,VALID,140,VALID,1.27804,
2002-01-30, 02:38:00,VALID,917.997,VALID,0,VALID,88.3422,VALID,-0.0679233,VALID,20.2537,VALID,117,VALID,1.65345,
2002-01-30, 02:39:00,VALID,917.976,VALID,0,VALID,88.3892,VALID,-0.101885,VALID,20.2095,VALID,149,VALID,2.23839,
2002-01-30, 02:40:00,VALID,917.951,VALID,0,VALID,88.3574,VALID,-0.101885,VALID,20.213,VALID,148,VALID,2.11855,
2002-01-30, 02:41:00,VALID,917.929,VALID,0,VALID,88.3117,VALID,-0.0679233,VALID,20.2192,VALID,154,VALID,2.01584,
2002-01-30, 02:42:00,VALID,917.912,VALID,0,VALID,87.9823,VALID,-0.101885,VALID,20.2323,VALID,153,VALID,1.88867,
2002-01-30, 02:43:00,VALID,917.913,VALID,0,VALID,88.2061,VALID,-0.0849042,VALID,20.2485,VALID,150,VALID,2.06926,
2002-01-30, 02:44:00,VALID,917.907,VALID,0,VALID,88.3167,VALID,-0.0849042,VALID,20.2321,VALID,153,VALID,1.93997,
2002-01-30, 02:45:00,VALID,917.917,VALID,0,VALID,88.2722,VALID,-0.101885,VALID,20.2025,VALID,148,VALID,1.89992,
2002-01-30, 02:46:00,VALID,917.898,VALID,0,VALID,88.285,VALID,-0.101885,VALID,20.1893,VALID,138,VALID,1.73881,
2002-01-30, 02:47:00,VALID,917.879,VALID,0,VALID,88.29,VALID,-0.101885,VALID,20.1868,VALID,153,VALID,2.1058,
2002-01-30, 02:48:00,VALID,917.853,VALID,0,VALID,88.2875,VALID,-0.0849042,VALID,20.1675,VALID,143,VALID,2.6065,
2002-01-30, 02:49:00,VALID,917.833,VALID,0,VALID,88.2697,VALID,-0.118866,VALID,20.1777,VALID,147,VALID,2.28611,
2002-01-30, 02:50:00,VALID,917.815,VALID,0,VALID,88.2239,VALID,-0.101885,VALID,20.2003,VALID,159,VALID,1.23933,
2002-01-30, 02:51:00,VALID,917.787,VALID,0,VALID,88.3511,VALID,-0.118866,VALID,20.1801,VALID,128,VALID,1.42188,
2002-01-30, 02:52:00,VALID,917.778,VALID,0,VALID,88.5329,VALID,-0.101885,VALID,20.1486,VALID,142,VALID,1.90728,
2002-01-30, 02:53:00,VALID,917.787,VALID,0,VALID,88.6753,VALID,-0.0339617,VALID,20.0921,VALID,131,VALID,1.54071,
2002-01-30, 02:54:00,VALID,917.774,VALID,0,VALID,88.7974,VALID,0.0169808,VALID,20.0663,VALID,143,VALID,1.33398,
2002-01-30, 02:55:00,VALID,917.746,VALID,0,VALID,88.7224,VALID,0,VALID,20.0437,VALID,142,VALID,2.00801,
2002-01-30, 02:56:00,VALID,917.731,VALID,0,VALID,88.4592,VALID,0,VALID,20.076,VALID,158,VALID,1.2346,
2002-01-30, 02:57:00,VALID,917.704,VALID,0,VALID,88.3689,VALID,0,VALID,20.1182,VALID,151,VALID,1.55781,
2002-01-30, 02:58:00,VALID,917.682,VALID,0,VALID,88.6258,VALID,0,VALID,20.1048,VALID,147,VALID,1.95681,
2002-01-30, 02:59:00,VALID,917.686,VALID,0,VALID,88.9971,VALID,0,VALID,20.0762,VALID,145,VALID,1.73611,
2002-01-30, 03:00:00,VALID,917.697,VALID,0,VALID,89.1586,VALID,0,VALID,20.0404,VALID,142,VALID,1.44171,
2002-01-30, 03:01:00,VALID,917.712,VALID,0,VALID,88.9996,VALID,0,VALID,20.0342,VALID,148,VALID,1.67434,
2002-01-30, 03:02:00,VALID,917.729,VALID,0,VALID,88.8559,VALID,0,VALID,20.0342,VALID,150,VALID,1.70785,
2002-01-30, 03:03:00,VALID,917.735,VALID,0,VALID,88.6677,VALID,0.0169808,VALID,20.0631,VALID,129,VALID,1.98269,
2002-01-30, 03:04:00,VALID,917.735,VALID,0,VALID,88.5711,VALID,-0.0339617,VALID,20.0924,VALID,136,VALID,1.50391,
2002-01-30, 03:05:00,VALID,917.749,VALID,0,VALID,88.4948,VALID,-0.0339617,VALID,20.0988,VALID,139,VALID,1.83446,
2002-01-30, 03:06:00,VALID,917.739,VALID,0,VALID,88.36,VALID,-0.0169808,VALID,20.1085,VALID,124,VALID,1.62212,
2002-01-30, 03:07:00,VALID,917.74,VALID,0,VALID,88.1756,VALID,0,VALID,20.1471,VALID,129,VALID,1.00781,
2002-01-30, 03:08:00,VALID,917.736,VALID,0,VALID,88.2506,VALID,-0.0339617,VALID,20.1535,VALID,154,VALID,0.99359,
2002-01-30, 03:09:00,VALID,917.725,VALID,0,VALID,88.3841,VALID,-0.0169808,VALID,20.1505,VALID,145,VALID,2.40329,
2002-01-30, 03:10:00,VALID,917.715,VALID,0,VALID,88.3257,VALID,0,VALID,20.1637,VALID,148,VALID,1.30818,
2002-01-30, 03:11:00,VALID,917.703,VALID,0,VALID,88.3396,VALID,0,VALID,20.1766,VALID,160,VALID,1.52183,
2002-01-30, 03:12:00,VALID,917.703,VALID,0,VALID,88.4401,VALID,0,VALID,20.1597,VALID,160,VALID,1.41446,
2002-01-30, 03:13:00,VALID,917.7,VALID,0,VALID,88.566,VALID,-0.0169808,VALID,20.1575,VALID,142,VALID,1.95611,
2002-01-30, 03:14:00,VALID,917.29,VALID,0,VALID,88.683,VALID,0,VALID,20.1115,VALID,126,VALID,1.21423,
2002-01-30, 03:15:00,VALID,917.71,VALID,0,VALID,88.7669,VALID,-0.0169808,VALID,20.1085,VALID,125,VALID,2.36275,
2002-01-30, 03:16:00,VALID,917.705,VALID,0,VALID,88.8127,VALID,0,VALID,20.1212,VALID,160,VALID,1.90234,
2002-01-30, 03:17:00,VALID,917.707,VALID,0,VALID,88.9169,VALID,0,VALID,20.1274,VALID,143,VALID,2.02626,
2002-01-30, 03:18:00,VALID,917.718,VALID,0,VALID,88.9335,VALID,0,VALID,20.1309,VALID,146,VALID,1.8787,
2002-01-30, 03:19:00,VALID,917.696,VALID,0,VALID,88.8305,VALID,0,VALID,20.1177,VALID,150,VALID,2.03547,
2002-01-30, 03:20:00,VALID,917.661,VALID,0,VALID,88.8585,VALID,0,VALID,20.1279,VALID,151,VALID,1.99308,
2002-01-30, 03:21:00,VALID,917.652,VALID,0,VALID,88.2188,VALID,0,VALID,20.1247,VALID,113,VALID,2.04955,
2002-01-30, 03:22:00,VALID,917.65,VALID,0,VALID,87.6123,VALID,-0.0169808,VALID,20.2022,VALID,142,VALID,1.40502,
2002-01-30, 03:23:00,VALID,917.638,VALID,0,VALID,87.6733,VALID,0,VALID,20.2539,VALID,150,VALID,0.83113,
2002-01-30, 03:24:00,VALID,917.63,VALID,0,VALID,87.9238,VALID,0,VALID,20.2604,VALID,130,VALID,1.14648,
2002-01-30, 03:25:00,VALID,917.615,VALID,0,VALID,88.229,VALID,0,VALID,20.2373,VALID,128,VALID,1.37603,
2002-01-30, 03:26:00,VALID,917.637,VALID,0,VALID,88.3829,VALID,0,VALID,20.2152,VALID,139,VALID,1.80363,
2002-01-30, 03:27:00,VALID,917.636,VALID,0,VALID,88.3218,VALID,0.0169808,VALID,20.195,VALID,146,VALID,2.79667,
2002-01-30, 03:28:01,VALID,917.635,VALID,0,VALID,88.1057,VALID,0,VALID,20.2147,VALID,152,VALID,2.15345,
2002-01-30, 03:29:00,VALID,917.634,VALID,0,VALID,88.0446,VALID,0,VALID,20.2408,VALID,149,VALID,1.97776,
2002-01-30, 03:30:00,VALID,917.659,VALID,0,VALID,87.5551,VALID,0,VALID,20.2567,VALID,144,VALID,2.5779,
2002-01-30, 03:31:00,VALID,917.659,VALID,0,VALID,87.5602,VALID,0,VALID,20.3183,VALID,132,VALID,1.59844,
2002-01-30, 03:32:00,VALID,917.66,VALID,0,VALID,87.7623,VALID,-0.0169808,VALID,20.321,VALID,133,VALID,2.20139,
2002-01-30, 03:33:01,VALID,917.665,VALID,0,VALID,87.8781,VALID,0.0339617,VALID,20.3215,VALID,137,VALID,1.98329,
2002-01-30, 03:34:00,VALID,917.677,VALID,0,VALID,88.0357,VALID,0.0169808,VALID,20.3081,VALID,125,VALID,0.9981,
2002-01-30, 03:35:01,VALID,917.665,VALID,0,VALID,88.257,VALID,0,VALID,20.2992,VALID,132,VALID,1.24013,
2002-01-30, 03:36:00,VALID,917.658,VALID,0,VALID,88.3892,VALID,0,VALID,20.2562,VALID,131,VALID,1.68391,
2002-01-30, 03:37:00,VALID,917.647,VALID,0,VALID,88.3931,VALID,0.0169808,VALID,20.2502,VALID,138,VALID,1.82454,
2002-01-30, 03:38:00,VALID,917.623,VALID,0,VALID,88.5037,VALID,0,VALID,20.2472,VALID,149,VALID,1.96362,